Weather History for Hanford, CA

Change the Weather History Date:

Thursday, February 21, 2013

  Actual Average Record
Temperature  
Mean Temperature 44 °F 52 °F  
Max Temperature 58 °F 63 °F 71 °F (2002)
Min Temperature 30 °F 40 °F 30 °F (2006)
Degree Days  
Heating Degree Days 21    
Month to date heating degree days 366  
Since 1 July heating degree days 1943  
Cooling Degree Days 0    
Month to date cooling degree days 0  
Year to date cooling degree days 0  
Moisture  
Dew Point 34 °F    
Average Humidity 70    
Maximum Humidity 96    
Minimum Humidity 43    
Precipitation  
Precipitation 0.00 in 0.07 in 0.39 in (1998)
Month to date precipitation 0.42 1.26  
Year to date precipitation 0.67 3.30  
Since 1 July precipitation 2.67 6.64  
Snow  
Snow 0.00 in - - ()
Month to date snowfall 0.0  
Since 1 July snowfall 0.0  
Snow Depth 0.00 in    
Sea Level Pressure  
Sea Level Pressure 30.12 in    
Wind  
Wind Speed 2 mph (ENE)    
Max Wind Speed 16 mph    
Max Gust Speed 22 mph    
Visibility 8 miles    
Events      
T = Trace of Precipitation, MM = Missing Value Source: NWS Daily Summary

Daily Weather History Graph

Daily Weather History Graph

Search for Another Location

Airport:

Trip Planner

Search our weather history database for the weather conditions in past years. The results will help you decide how hot, cold, wet, or windy it might be!

Date:

Astronomy

Feb. 21, 2013 Rise Set
Actual Time 6:38 AM PST 5:45 PM PST
Civil Twilight 6:12 AM PST 6:11 PM PST
Nautical Twilight 5:42 AM PST 6:41 PM PST
Astronomical Twilight 5:12 AM PST 7:11 PM PST
Moon 2:09 PM PST (2/21) 3:42 AM PST (2/21)
Length of Visible Light 11h 59m
Length of Day
11h 07m
Waxing Gibbous, 84% of the Moon is Illuminated
Feb 21
Waxing Gibbous
Feb 25
Full
Mar 4
Last Quarter
Mar 11
New
Mar 19
First Quarter

Hourly Weather History & Observations

Time (PST) Temp. Windchill Dew Point Humidity Pressure Visibility Wind Dir Wind Speed Gust Speed Precip Events Conditions
12:53 AM 34.0 °F 29.8 °F 32.0 °F 92% 30.08 in 7.0 mi East 4.6 mph - N/A   Clear
1:53 AM 35.1 °F 32.2 °F 32.0 °F 89% 30.08 in 9.0 mi ESE 3.5 mph - N/A   Clear
2:53 AM 34.0 °F 29.8 °F 32.0 °F 92% 30.07 in 7.0 mi East 4.6 mph - N/A   Clear
3:53 AM 34.0 °F 31.0 °F 32.0 °F 92% 30.06 in 7.0 mi ENE 3.5 mph - N/A   Clear
4:53 AM 32.0 °F 27.5 °F 30.0 °F 92% 30.06 in 7.0 mi NE 4.6 mph - N/A   Partly Cloudy
5:53 AM 30.9 °F - 28.9 °F 92% 30.06 in 7.0 mi Calm Calm - N/A   Clear
6:53 AM 35.1 °F - 33.1 °F 92% 30.09 in 8.0 mi Calm Calm - N/A   Overcast
7:53 AM 37.0 °F - 35.1 °F 93% 30.10 in 6.0 mi Calm Calm - N/A   Mostly Cloudy
8:53 AM 42.1 °F - 37.0 °F 82% 30.11 in 10.0 mi Calm Calm - N/A   Overcast
9:53 AM 46.0 °F 44.8 °F 37.9 °F 73% 30.12 in 10.0 mi NW 3.5 mph - N/A   Partly Cloudy
10:53 AM 51.1 °F - 36.0 °F 56% 30.14 in 10.0 mi Calm Calm - N/A   Clear
11:53 AM 53.1 °F - 36.0 °F 52% 30.14 in 10.0 mi Variable 4.6 mph - N/A   Clear
12:53 PM 55.9 °F - 37.0 °F 49% 30.12 in 10.0 mi Calm Calm - N/A   Scattered Clouds
1:53 PM 54.0 °F - 35.1 °F 49% 30.11 in 10.0 mi SE 3.5 mph - N/A   Mostly Cloudy
2:53 PM 55.9 °F - 36.0 °F 47% 30.11 in 10.0 mi Variable 5.8 mph - N/A   Overcast
3:53 PM 55.9 °F - 34.0 °F 44% 30.11 in 10.0 mi NNW 6.9 mph - N/A   Mostly Cloudy
4:53 PM 55.0 °F - 34.0 °F 45% 30.12 in 10.0 mi North 5.8 mph - N/A   Clear
5:53 PM 52.0 °F - 34.0 °F 50% 30.14 in 10.0 mi Calm Calm - N/A   Clear
6:53 PM 45.0 °F - 35.1 °F 68% 30.15 in 10.0 mi Calm Calm - N/A   Clear
7:53 PM 44.1 °F - 34.0 °F 68% 30.16 in 8.0 mi Calm Calm - N/A   Clear
8:53 PM 39.9 °F - 33.1 °F 77% 30.17 in 8.0 mi Calm Calm - N/A   Clear
9:53 PM 39.9 °F - 35.1 °F 83% 30.18 in 8.0 mi Calm Calm - N/A   Overcast
10:53 PM 41.0 °F - 37.0 °F 86% 30.19 in 7.0 mi Calm Calm - N/A   Overcast
11:53 PM 39.0 °F - 36.0 °F 89% 30.20 in 6.0 mi Calm Calm - N/A   Mostly Cloudy